Weather History for St. Joseph, MO

Change the Weather History Date:

Friday, February 8, 2013

  Actual Average Record
Temperature  
Mean Temperature 35 °F 30 °F  
Max Temperature 41 °F 40 °F 68 °F (1938)
Min Temperature 29 °F 20 °F -19 °F (1971)
Degree Days  
Heating Degree Days 30 35  
Month to date heating degree days 252 284  
Since 1 July heating degree days 3413 3667  
Cooling Degree Days 0 0  
Month to date cooling degree days 0 0  
Year to date cooling degree days 0 0  
Moisture  
Dew Point 25 °F    
Average Humidity 68    
Maximum Humidity 85    
Minimum Humidity 51    
Precipitation  
Precipitation 0.00 in 0.03 in 0.57 in (2001)
Month to date precipitation T 0.23  
Year to date precipitation 0.64 0.79  
Sea Level Pressure  
Sea Level Pressure 30.31 in    
Wind  
Wind Speed 8 mph (ENE)    
Max Wind Speed 16 mph    
Max Gust Speed 22 mph    
Visibility 10 miles    
Events      
T = Trace of Precipitation, MM = Missing Value Source: NWS Daily Summary

Daily Weather History Graph

Daily Weather History Graph

Search for Another Location

Airport:

Trip Planner

Search our weather history database for the weather conditions in past years. The results will help you decide how hot, cold, wet, or windy it might be!

Date:

Astronomy

Feb. 08, 2013 Rise Set
Actual Time 7:20 AM CST 5:48 PM CST
Civil Twilight 6:52 AM CST 6:16 PM CST
Nautical Twilight 6:20 AM CST 6:47 PM CST
Astronomical Twilight 5:48 AM CST 7:19 PM CST
Moon 5:49 AM CST (2/8) 4:22 PM CST (2/8)
Length of Visible Light 11h 23m
Length of Day
10h 27m
Waning Crescent, 3% of the Moon is Illuminated
Feb 8
Waning Crescent
Feb 10
New
Feb 17
First Quarter
Feb 25
Full
Mar 4
Last Quarter

Hourly Weather History & Observations

Time (CST) Temp. Windchill Dew Point Humidity Pressure Visibility Wind Dir Wind Speed Gust Speed Precip Events Conditions
12:53 AM 32.0 °F 22.5 °F 25.0 °F 75% 30.26 in 10.0 mi North 12.7 mph - N/A   Overcast
1:53 AM 32.0 °F 24.2 °F 25.0 °F 75% 30.27 in 10.0 mi North 9.2 mph - N/A   Overcast
2:53 AM 32.0 °F 24.2 °F 24.1 °F 73% 30.29 in 10.0 mi North 9.2 mph - N/A   Overcast
3:53 AM 32.0 °F 22.5 °F 24.1 °F 73% 30.29 in 10.0 mi North 12.7 mph - N/A   Overcast
4:53 AM 30.9 °F 22.8 °F 25.0 °F 79% 30.32 in 10.0 mi North 9.2 mph - N/A   Overcast
5:00 AM 30.2 °F 21.9 °F 24.8 °F 80% 30.30 in 10.0 mi North 9.2 mph - N/A   Overcast
5:53 AM 28.9 °F 20.4 °F 24.1 °F 82% 30.33 in 9.0 mi North 9.2 mph - N/A   Overcast
6:53 AM 28.9 °F 21.1 °F 24.1 °F 82% 30.35 in 10.0 mi NNE 8.1 mph - N/A   Overcast
7:53 AM 28.9 °F 21.9 °F 24.1 °F 82% 30.36 in 9.0 mi North 6.9 mph - N/A   Overcast
8:53 AM 30.0 °F 25.2 °F 24.1 °F 79% 30.39 in 10.0 mi East 4.6 mph - N/A   Overcast
9:53 AM 30.0 °F - 24.1 °F 79% 30.38 in 10.0 mi Calm Calm - N/A   Overcast
10:53 AM 30.9 °F 25.2 °F 24.1 °F 76% 30.38 in 10.0 mi East 5.8 mph - N/A   Overcast
11:53 AM 32.0 °F - 25.0 °F 75% 30.39 in 10.0 mi Calm Calm - N/A   Overcast
12:38 PM 35.6 °F - 24.8 °F 65% 30.35 in 10.0 mi Calm Calm - N/A   Overcast
12:53 PM 34.0 °F 29.8 °F 24.1 °F 67% 30.37 in 10.0 mi ESE 4.6 mph - N/A   Scattered Clouds
1:53 PM 37.0 °F - 25.0 °F 62% 30.37 in 9.0 mi Calm Calm - N/A   Clear
2:53 PM 39.9 °F 37.8 °F 26.1 °F 58% 30.31 in 10.0 mi Variable 3.5 mph - N/A   Clear
3:53 PM 41.0 °F 35.2 °F 25.0 °F 53% 30.30 in 10.0 mi East 9.2 mph - N/A   Clear
4:53 PM 39.9 °F 33.9 °F 26.1 °F 58% 30.28 in 10.0 mi SE 9.2 mph - N/A   Clear
5:53 PM 37.0 °F 29.8 °F 27.0 °F 67% 30.27 in 10.0 mi ESE 10.4 mph - N/A   Clear
6:53 PM 34.0 °F 27.2 °F 26.1 °F 73% 30.28 in 10.0 mi SE 8.1 mph - N/A   Clear
7:53 PM 32.0 °F 22.5 °F 26.1 °F 79% 30.28 in 10.0 mi SE 12.7 mph - N/A   Clear
8:53 PM 30.0 °F 18.3 °F 25.0 °F 82% 30.28 in 10.0 mi SE 17.3 mph - N/A   Scattered Clouds
9:05 PM 30.2 °F 19.3 °F 24.8 °F 80% 30.25 in 10.0 mi SE 15.0 mph - N/A   Mostly Cloudy
9:53 PM 30.0 °F 20.5 °F 26.1 °F 85% 30.27 in 10.0 mi SE 11.5 mph - N/A   Overcast
10:53 PM 30.0 °F 21.7 °F 25.0 °F 82% 30.27 in 9.0 mi SE 9.2 mph - N/A   Overcast
11:53 PM 30.9 °F 21.2 °F 26.1 °F 82% 30.25 in 7.0 mi SE 12.7 mph - N/A   Overcast